Regional Weather Roundup
Issued by NWS

Home | Current Version | Previous Version | Graphics & Text | Print | Product List | Glossary On
Versions: 1 2 3 4 5 6 7 8 9 10 11 12 13 14 15 16 17 18 19 20 21 22 23 24 25 26 27 28 29 30 31 32 33 34 35 36 37 38 39 40 41 42 43 44 45 46 47 48 49 50
000
ASUS43 KOAX 200202
RWRNE

WEATHER ROUNDUP FOR NEBRASKA
NATIONAL WEATHER SERVICE OMAHA NE
900 PM CDT THU APR 19 2018

NOTES: SATELLITE DATA IS BEING USED TO AUGMENT CLOUD COVER ABOVE
       12000 FEET.
       "FAIR" INDICATES FEW OR NO CLOUDS BELOW 12,000 FEET WITH NO
       SIGNIFICANT WEATHER AND/OR OBSTRUCTIONS TO VISIBILITY.


NEZ001>004-019>022-054>056-200300-
NEBRASKA PANHANDLE

CITY           SKY/WX    TMP DP  RH WIND       PRES   REMARKS
SCOTTSBLUFF    CLOUDY    52  32  46 E22       30.07S
ALLIANCE       CLOUDY    49  30  48 SE18      30.12F
CHADRON        CLOUDY    53  30  41 SE14      30.12S
GORDON         FAIR      49  30  47 SE12      30.18S
KIMBALL        CLOUDY    52  24  33 SE24G31   30.08R
SIDNEY         CLOUDY    52  28  39 SE24G31   30.11F
$$

NEZ057>060-069>072-079>082-200300-
SOUTHWEST NEBRASKA

CITY           SKY/WX    TMP DP  RH WIND       PRES   REMARKS
NORTH PLATTE   MOCLDY    45  28  51 SE10      30.26S
IMPERIAL       CLOUDY    50  26  39 E20       30.18S
LEXINGTON      PTCLDY    48  27  44 SE8       30.30R
MCCOOK         MOCLDY    49  27  42 E12       30.24S
OGALLALA       CLOUDY    51  27  39 E16       30.19S
$$

NEZ005>010-023>029-035>040-094-200300-
NORTH CENTRAL NEBRASKA

CITY           SKY/WX    TMP DP  RH WIND       PRES   REMARKS
VALENTINE      PTCLDY    46  27  47 SE10      30.29R
AINSWORTH      PTCLDY    40  28  62 E6        30.31R
BROKEN BOW     PTCLDY    45  28  51 E8        30.30R
O`NEILL        PTCLDY    43  32  65 E8        30.34S
ORD            CLEAR     42  26  53 E5        30.32R
THEDFORD       MOCLDY    46  30  52 SE9       30.28S
$$

NEZ041-046>049-061>064-073>077-083>087-200300-
SOUTH CENTRAL NEBRASKA

CITY           SKY/WX    TMP DP  RH WIND       PRES   REMARKS
GRAND ISLAND   CLEAR     47  29  49 SE7       30.33S
AURORA         CLEAR     44  25  47 E7        30.34R
HASTINGS       CLEAR     48  27  44 SE7       30.32S
HEBRON         CLOUDY    43  28  55 CALM      30.35R
HOLDREGE       CLEAR     41  27  57 SE8       30.30S
KEARNEY        CLEAR     44  27  51 SE8       30.32R
YORK             N/A     45  27  49 CALM      30.34S
$$

NEZ011>018-030>034-042>045-200300-
NORTHEAST NEBRASKA

CITY           SKY/WX    TMP DP  RH WIND       PRES   REMARKS
NORFOLK        CLEAR     41  27  57 E5        30.33F
ALBION         CLEAR     46  26  44 E6        30.35R
BLAIR          CLOUDY    48  28  47 NE7       30.37R
COLUMBUS       PTCLDY    44  29  55 E8        30.36S
FREMONT        MOCLDY    52  28  40 CALM      30.37S
TEKAMAH        PTCLDY    45  31  58 E9        30.38R
WAYNE          CLEAR     42  34  73 E12       30.38S
$$

NEZ050>053-065>068-078-088>093-200300-
SOUTHEAST NEBRASKA

CITY           SKY/WX    TMP DP  RH WIND       PRES   REMARKS
LINCOLN        PTCLDY    51  26  37 E8        30.37R
OMAHA EPPLEY   CLOUDY    50  27  40 E8        30.37S
BEATRICE       CLOUDY    50  29  44 E3        30.36R
FALLS CITY     PTCLDY    49  25  39 E6        30.35F
NEBRASKA CITY  CLOUDY    49  28  43 E6        30.36S
PLATTSMOUTH    PTCLDY    51  26  38 E6        30.37R HAZE
$$

NEZ044-045-051>053-067-200300-
OMAHA AREA

CITY           SKY/WX    TMP DP  RH WIND       PRES   REMARKS
OMAHA EPPLEY   CLOUDY    50  27  40 E8        30.37S
BLAIR          CLOUDY    48  28  47 NE7       30.37R
FREMONT        MOCLDY    52  28  40 CALM      30.37S
MILLARD        PTCLDY    54  28  37 E3        30.37R
OFFUTT AFB     PTCLDY    42  28  56 NE5       30.36S
PLATTSMOUTH    PTCLDY    51  26  38 E6        30.37R HAZE
WAHOO          FAIR      47  24  41 E5        30.36S
$$




USA.gov is the U.S. government's official web portal to all federal, state and local government web resources and services.